Regional Weather Roundup
Issued by NWS

Home | Current Version | Previous Version | Text Only | Print | Product List | Glossary On
Versions: 1 2 3 4 5 6 7 8 9 10 11 12 13 14 15 16 17 18 19 20 21 22 23 24 25 26 27 28 29 30 31 32 33 34 35 36 37 38 39 40 41 42 43 44 45 46 47 48 49 50
000
ASUS45 KCYS 280710
RWRWY

WYOMING REGIONAL WEATHER ROUNDUP
NATIONAL WEATHER SERVICE CHEYENNE WY
100 AM MDT THU MAY 28 2015

NOTE:  "FAIR" INDICATES FEW OR NO CLOUDS BELOW 12,000 FEET
WITH NO SIGNIFICANT WEATHER AND/OR OBSTRUCTIONS TO VISIBILITY.

WYZ001-280800-
YELLOWSTONE NATIONAL PARK

CITY           SKY/WX    TMP DP  RH WIND       PRES   REMARKS
LK YELLOWSTONE   N/A     39  37  92 CALM      30.17R
W YELLOWSTONE  NOT AVBL

$$
WYZ002>013-054>058-071-098>099-280800-
NORTHERN WYOMING

CITY           SKY/WX    TMP DP  RH WIND       PRES   REMARKS
JACKSON        CLOUDY    45  43  93 W5        30.14S
CODY           MOCLDY    50  48  93 S3        30.04F
GREYBULL       CLOUDY    60  45  57 NW17      29.98S
WORLAND        FAIR      53  47  79 CALM      30.01R
SHERIDAN       FAIR      52  49  89 SW5       29.98F
BUFFALO        MOCLDY    52  47  83 W10       30.02S
GILLETTE         N/A     53  51  93 MISG      29.98F
HULETT         LGT RAIN  54  52  94 SE7       29.99R
NEWCASTLE      CLOUDY    59  50  72 SE15G21   29.98S

$$
WYZ014>020-022>026-101>103-280800-
CENTRAL WYOMING

CITY           SKY/WX    TMP DP  RH WIND       PRES   REMARKS
BIG PINEY      CLOUDY    42  38  85 N6        30.16S
PINEDALE       FAIR      37  37 100 NW3       30.17S
DUBOIS         FAIR      39  34  81 W9        30.12S WCI  33
LANDER         FAIR      50  39  66 W9        30.03S
RIVERTON       FAIR      49  44  83 SW7       30.05R
CASPER         FAIR      50  44  80 W10       30.03F
DOUGLAS        FAIR      54  45  71 CALM      30.02R

$$
WYZ021-027>030-104>119-280800-
SOUTHERN WYOMING

CITY           SKY/WX    TMP DP  RH WIND       PRES   REMARKS
EVANSTON       FAIR      41  38  89 S9        30.20R
KEMMERER       CLOUDY    45  39  81 SW3       30.20R
FORT BRIDGER   CLOUDY    43  43 100 SW9       30.20F
ROCK SPRINGS   CLOUDY    48  42  80 SW13      30.16R
DIXON          PTSUNNY   50  42  73 S8        30.19F
RAWLINS        FAIR      49  41  74 SW3       30.14S
SARATOGA       FAIR      45  41  87 S8        30.16F
LARAMIE        FAIR      45  38  76 SW10      30.14F
CHEYENNE       FAIR      53  51  93 SE5       30.10S
TORRINGTON     CLOUDY    57  53  86 SE9       30.02S
PINE BLUFFS    FAIR      54  54 100 SE8       30.07F

$$



USA.gov is the U.S. government's official web portal to all federal, state and local government web resources and services.